sat.trackr.live / text

‹ back to catalog

ICEYE-X2

NORAD 43800 · 2018-099AU

PAYLOAD ACTIVE UNKNOWN

§ Identity

Operator
Country
FIN
Launch date
2018-12-03
Launch site
AFWTR
Launch vehicle
Mass (kg)
RCS (m²)

External: N2YO · Heavens-Above · Gunter

§ Orbital elements

Epoch: 2026-05-25T04:41:44.985120Z

Period
94.90 min
Inclination
97.4375°
Eccentricity
0.0010883
Mean motion
15.17391943 rev/d
Perigee alt
506.2 km
Apogee alt
521.2 km
Semi-major
6,891.9 km
B*
2.1437e-4
RAAN
199.4469°
Arg perigee
32.9416°
Mean anomaly
327.2493°
Rev number
40,933

§ Raw data

ICEYE-X21 43800U 18099AU  26145.19565955  .00004222  00000+0  21437-3 0  99942 43800  97.4375 199.4469 0010883  32.9416 327.2493 15.17391943409331

JSON: /api/v1/satellites/43800 · /tle

For live sub-satellite position, see the globe view (requires WebGL).

§ Visibility from observer

Set your observer location to see the next 7 days of passes ≥ 10°. The values pass through the URL so the page stays shareable.

No JS? Fill the form by hand. The geolocation button needs JavaScript.

§ Radio — SatNOGS DB

ModeDescriptionDownlinkUplink
BPSK S-band telemetry 2.264 GHz

1 transmitter · refreshed weekly from db.satnogs.org